Regional Weather Roundup
Issued by NWS Sioux Falls, SD

Home | Current Version | Previous Version | Graphics & Text | Print | Product List | Glossary Off
Versions: 1 2 3 4 5 6 7 8 9 10 11 12 13 14 15 16 17 18 19 20 21 22 23 24 25 26 27 28 29 30 31 32 33 34 35 36 37 38 39 40 41 42 43 44 45 46 47 48 49 50

000
ASUS43 KFSD 251710
RWRFSD

WEATHER ROUNDUP FOR SE SOUTH DAKOTA/SW MINNESOTA/NW IOWA
NATIONAL WEATHER SERVICE SIOUX FALLS SD
1100 AM CST THU DEC 25 2014

NOTE: "FAIR" INDICATES FEW OR NO CLOUDS BELOW 12,000 FEET WITH NO
SIGNIFICANT WEATHER AND OR OBSTRUCTIONS TO VISIBILITY.


SDZ038>040-050-052>070-251800-
SOUTHEAST SOUTH DAKOTA

CITY           SKY/WX    TMP DP  RH WIND       PRES   REMARKS
CHAMBERLAIN    CLOUDY    32  29  91 NE9       29.68R WCI  24
HURON          LGT SNOW  30  28  92 N10       29.70R FOG     WCI  21
MADISON        FAIR      28  28 100 E10       29.66R WCI  19
MITCHELL       CLOUDY    32  28  85 N8        29.69R WCI  25
SIOUX FALLS    PTSUNNY   32  27  81 NE10      29.65S WCI  24
WINNER         CLOUDY    33  30  88 N9        29.67R FOG     WCI  25
YANKTON        MOSUNNY   32  27  80 E6        29.65R WCI  26
$$

MNZ071-072-080-081-089-090-097-098-251800-
SOUTHWEST MINNESOTA

CITY           SKY/WX    TMP DP  RH WIND       PRES   REMARKS
FAIRMONT       CLOUDY    34  27  75 S7        29.71S WCI  28
JACKSON        CLOUDY    32  28  86 S6        29.70R WCI  26
LUVERNE        PTSUNNY   34  30  86 E5        29.68S WCI  30
MARSHALL       PTSUNNY   30  28  93 N3        29.71S
MONTEVIDEO     LGT SNOW  34  34 100 CALM      29.72S
PIPESTONE      CLOUDY    30  28  93 SE6       29.67R WCI  24
REDWOOD FALLS  CLOUDY    32  28  85 SW5       29.72R WCI  27
TRACY          PTSUNNY   32  30  92 N5        29.69S WCI  27
WINDOM         PTSUNNY   32  28  86 CALM      29.70R
WORTHINGTON    CLOUDY    32 -17  11 CALM      29.70R
$$

IAZ001>003-012>014-020>022-031-032-NEZ013-014-SDZ071-251800-
NORTHWEST IOWA

CITY           SKY/WX    TMP DP  RH WIND       PRES   REMARKS
CHEROKEE       PTSUNNY   32  29  90 S7        29.68F WCI  26
DENISON        PTSUNNY   36  30  80 S12       29.68S
ESTHERVILLE    PTSUNNY   32  28  85 S8        29.70R WCI  25
LE MARS        PTSUNNY   36  30  80 S9        29.68R
ORANGE CITY    MOSUNNY   36  28  75 S7        29.66S
SHELDON        PTSUNNY   32  30  93 SE8       29.66S WCI  25
SIOUX CITY     PTSUNNY   37  31  78 SE7       29.66R
SPENCER        MOSUNNY   36  29  75 S8        29.70R
STORM LAKE     PTSUNNY   32  28  86 S13       29.68F WCI  22
$$

ABBREVIATIONS USED IN REMARKS
   TC - TEMPERATURE IN CELSIUS
  WCI - WIND CHILL INDEX
   HX - HEAT INDEX
  VSB - VISIBILITY



USA.gov is the U.S. government's official web portal to all federal, state and local government web resources and services.